Year,Month,Day,Hour,Minute,Value (Times are PST for temperature in C)
2008,07,28,09,30,13.80
2008,07,28,09,31,13.90
2008,07,28,09,32,13.90
2008,07,28,09,33,14.00
2008,07,28,09,34,14.00
2008,07,28,09,35,14.10
2008,07,28,09,36,14.10
2008,07,28,09,37,14.10
2008,07,28,09,38,14.20
2008,07,28,09,39,14.20
2008,07,28,09,40,14.10
2008,07,28,09,41,14.00
2008,07,28,09,42,14.00
2008,07,28,09,43,13.80
2008,07,28,09,44,13.80
2008,07,28,09,45,13.70
2008,07,28,09,46,13.80
2008,07,28,09,47,13.80
2008,07,28,09,48,13.80
2008,07,28,09,49,13.80
2008,07,28,09,50,13.80
2008,07,28,09,51,13.90
2008,07,28,09,52,13.90
2008,07,28,09,53,13.90
2008,07,28,09,54,13.90
2008,07,28,09,55,13.90
2008,07,28,09,56,13.90
2008,07,28,09,57,13.90
2008,07,28,09,58,14.00
2008,07,28,09,59,14.10
2008,07,28,10,00,14.20
2008,07,28,10,01,14.40
2008,07,28,10,02,14.40
2008,07,28,10,03,14.40
2008,07,28,10,04,14.30
2008,07,28,10,05,14.30
2008,07,28,10,06,14.40
2008,07,28,10,07,14.40
2008,07,28,10,08,14.40
2008,07,28,10,09,14.40
2008,07,28,10,10,14.40
2008,07,28,10,11,14.40
2008,07,28,10,12,14.40
2008,07,28,10,13,14.40
2008,07,28,10,14,14.40
2008,07,28,10,15,14.50
2008,07,28,10,16,14.50
2008,07,28,10,17,14.50
2008,07,28,10,18,14.50
2008,07,28,10,19,14.60
2008,07,28,10,20,14.60
2008,07,28,10,21,14.70
2008,07,28,10,22,14.70
2008,07,28,10,23,14.70
2008,07,28,10,24,14.80
2008,07,28,10,25,14.90
2008,07,28,10,26,15.00
2008,07,28,10,27,15.00
2008,07,28,10,28,15.10
2008,07,28,10,29,15.30
2008,07,28,10,30,15.30
2008,07,28,10,31,15.40
2008,07,28,10,32,15.40
2008,07,28,10,33,15.40
2008,07,28,10,34,15.40
2008,07,28,10,35,15.40
2008,07,28,10,36,15.30
2008,07,28,10,37,15.40
2008,07,28,10,38,15.20
2008,07,28,10,39,15.20
2008,07,28,10,40,15.00
2008,07,28,10,41,15.00
2008,07,28,10,42,15.00
2008,07,28,10,43,15.00
2008,07,28,10,44,15.00
2008,07,28,10,45,15.00
2008,07,28,10,46,15.00
2008,07,28,10,47,15.10
2008,07,28,10,48,15.20
2008,07,28,10,49,15.30
2008,07,28,10,50,15.30
2008,07,28,10,51,15.30
2008,07,28,10,52,15.00
2008,07,28,10,53,15.00
2008,07,28,10,54,15.00
2008,07,28,10,55,15.00
2008,07,28,10,56,14.90
2008,07,28,10,57,14.70
2008,07,28,10,58,14.60
2008,07,28,10,59,14.50
2008,07,28,11,00,14.40
2008,07,28,11,01,14.30
2008,07,28,11,02,14.30
2008,07,28,11,03,14.50
2008,07,28,11,04,14.60
2008,07,28,11,05,14.70
2008,07,28,11,06,14.80
2008,07,28,11,07,14.80
2008,07,28,11,08,14.90
2008,07,28,11,09,15.00
2008,07,28,11,10,15.00
2008,07,28,11,11,15.00
2008,07,28,11,12,15.00
2008,07,28,11,13,14.90
2008,07,28,11,14,14.70
2008,07,28,11,15,14.50
2008,07,28,11,16,14.40
2008,07,28,11,17,14.40
2008,07,28,11,18,14.50
2008,07,28,11,19,14.60
2008,07,28,11,20,14.80
2008,07,28,11,21,15.00
2008,07,28,11,22,15.00
2008,07,28,11,23,15.00
2008,07,28,11,24,15.00
2008,07,28,11,25,15.00
2008,07,28,11,26,14.80
2008,07,28,11,27,14.80
2008,07,28,11,28,14.70
2008,07,28,11,29,14.50
2008,07,28,11,30,14.50
2008,07,28,11,31,14.40
2008,07,28,11,32,14.40
2008,07,28,11,33,14.30
2008,07,28,11,34,14.30
2008,07,28,11,35,14.50
2008,07,28,11,36,14.60
2008,07,28,11,37,14.70
2008,07,28,11,38,14.80
2008,07,28,11,39,14.70
2008,07,28,11,40,14.50
2008,07,28,11,41,14.40
2008,07,28,11,42,14.40
2008,07,28,11,43,14.50
2008,07,28,11,44,14.50
2008,07,28,11,45,14.50
2008,07,28,11,46,14.40
2008,07,28,11,47,14.50
2008,07,28,11,48,14.60
2008,07,28,11,49,14.60
2008,07,28,11,50,14.70
2008,07,28,11,51,14.80
2008,07,28,11,52,15.00
2008,07,28,11,53,15.00
2008,07,28,11,54,15.00
2008,07,28,11,55,15.00
2008,07,28,11,56,15.00
2008,07,28,11,57,15.00
2008,07,28,11,58,15.00
2008,07,28,11,59,15.00
2008,07,28,12,00,15.00
2008,07,28,12,01,15.00
2008,07,28,12,02,15.00
2008,07,28,12,03,15.00
2008,07,28,12,04,15.00
2008,07,28,12,05,15.00
2008,07,28,12,06,15.00
2008,07,28,12,07,15.10
2008,07,28,12,08,15.20
2008,07,28,12,09,15.20
2008,07,28,12,10,15.30
2008,07,28,12,11,15.20
2008,07,28,12,12,15.10
2008,07,28,12,13,15.00
2008,07,28,12,14,15.10
2008,07,28,12,15,15.20
2008,07,28,12,16,15.00
2008,07,28,12,17,15.00
2008,07,28,12,18,15.00
2008,07,28,12,19,14.90
2008,07,28,12,20,15.00
2008,07,28,12,21,15.00
2008,07,28,12,22,15.00
2008,07,28,12,23,15.20
2008,07,28,12,24,15.40
2008,07,28,12,25,15.50
2008,07,28,12,26,15.50
2008,07,28,12,27,15.60
2008,07,28,12,28,15.90
2008,07,28,12,29,16.00
2008,07,28,12,30,15.90
2008,07,28,12,31,15.80
2008,07,28,12,32,15.80
2008,07,28,12,33,15.80
2008,07,28,12,34,15.80
2008,07,28,12,35,15.70
2008,07,28,12,36,15.70
2008,07,28,12,37,15.70
2008,07,28,12,38,15.80
2008,07,28,12,39,15.70
2008,07,28,12,40,15.70
2008,07,28,12,41,15.50
2008,07,28,12,42,15.40
2008,07,28,12,43,15.40
2008,07,28,12,44,15.30
2008,07,28,12,45,15.20
2008,07,28,12,46,15.20
2008,07,28,12,47,15.20
2008,07,28,12,48,15.20
2008,07,28,12,49,15.10
2008,07,28,12,50,15.00
2008,07,28,12,51,15.00
2008,07,28,12,52,15.00
2008,07,28,12,53,15.00
2008,07,28,12,54,15.00
2008,07,28,12,55,15.00
2008,07,28,12,56,15.00
2008,07,28,12,57,15.00
2008,07,28,12,58,15.00
2008,07,28,12,59,15.00
2008,07,28,13,00,15.20
2008,07,28,13,01,15.40
2008,07,28,13,02,15.60
2008,07,28,13,03,15.60
2008,07,28,13,04,15.60
2008,07,28,13,05,15.60
2008,07,28,13,06,15.60
2008,07,28,13,07,15.60
2008,07,28,13,08,15.60
2008,07,28,13,09,15.70
2008,07,28,13,10,15.70
2008,07,28,13,11,15.70
2008,07,28,13,12,15.80
2008,07,28,13,13,15.90
2008,07,28,13,14,16.00
2008,07,28,13,15,16.20
2008,07,28,13,16,16.30
2008,07,28,13,17,16.40
2008,07,28,13,18,16.60
2008,07,28,13,19,16.80
2008,07,28,13,20,16.90
2008,07,28,13,21,17.00
2008,07,28,13,22,17.30
2008,07,28,13,23,17.50
2008,07,28,13,24,17.60
2008,07,28,13,25,17.70
2008,07,28,13,26,17.80
2008,07,28,13,27,18.00
2008,07,28,13,28,18.10
2008,07,28,13,29,18.10
2008,07,28,13,30,18.20
2008,07,28,13,31,18.20
2008,07,28,13,32,18.20
2008,07,28,13,33,18.20
2008,07,28,13,34,18.20
2008,07,28,13,35,18.30
2008,07,28,13,36,18.30
2008,07,28,13,37,18.30
2008,07,28,13,38,18.30
2008,07,28,13,39,18.20
2008,07,28,13,40,18.30
2008,07,28,13,41,18.40
2008,07,28,13,42,18.50
2008,07,28,13,43,18.50
2008,07,28,13,44,18.50
2008,07,28,13,45,18.40
2008,07,28,13,46,18.50
2008,07,28,13,47,18.50
2008,07,28,13,48,18.50
2008,07,28,13,49,18.40
2008,07,28,13,50,18.40
2008,07,28,13,51,18.40
2008,07,28,13,52,18.50
2008,07,28,13,53,18.60
2008,07,28,13,54,18.60
2008,07,28,13,55,18.40
2008,07,28,13,56,18.40
2008,07,28,13,57,18.40
2008,07,28,13,58,18.30
2008,07,28,13,59,18.30
2008,07,28,14,00,18.30
2008,07,28,14,01,18.30
2008,07,28,14,02,18.30
2008,07,28,14,03,18.30
2008,07,28,14,04,18.20
2008,07,28,14,05,18.20
2008,07,28,14,06,18.30
2008,07,28,14,07,18.50
2008,07,28,14,08,18.50
2008,07,28,14,09,18.60
2008,07,28,14,10,18.70
2008,07,28,14,11,18.60
2008,07,28,14,12,18.60
2008,07,28,14,13,18.70
2008,07,28,14,14,18.70
2008,07,28,14,15,18.80
2008,07,28,14,16,18.80
2008,07,28,14,17,18.80
2008,07,28,14,18,18.80
2008,07,28,14,19,18.70
2008,07,28,14,20,18.60
2008,07,28,14,21,18.50
2008,07,28,14,22,18.50
2008,07,28,14,23,18.50
2008,07,28,14,24,18.50
2008,07,28,14,25,18.40
2008,07,28,14,26,18.40
2008,07,28,14,27,18.50
2008,07,28,14,28,18.50
2008,07,28,14,29,18.50
2008,07,28,14,30,18.60
2008,07,28,14,31,18.70
2008,07,28,14,32,18.70
2008,07,28,14,33,18.70
2008,07,28,14,34,18.70
2008,07,28,14,35,18.80
2008,07,28,14,36,18.80
2008,07,28,14,37,18.90
2008,07,28,14,38,18.90
2008,07,28,14,39,18.60
2008,07,28,14,40,18.40
2008,07,28,14,41,18.20
2008,07,28,14,42,18.10
2008,07,28,14,43,18.00
2008,07,28,14,44,17.90
2008,07,28,14,45,17.90
2008,07,28,14,46,18.00
2008,07,28,14,47,18.10
2008,07,28,14,48,18.10
2008,07,28,14,49,18.10
2008,07,28,14,50,18.10
2008,07,28,14,51,18.20
2008,07,28,14,52,18.20
2008,07,28,14,53,18.20
2008,07,28,14,54,18.20
2008,07,28,14,55,18.20
2008,07,28,14,56,18.20
2008,07,28,14,57,18.20
2008,07,28,14,58,18.30
2008,07,28,14,59,18.30
2008,07,28,15,00,18.20
2008,07,28,15,01,18.10
2008,07,28,15,02,18.10
2008,07,28,15,03,18.10
2008,07,28,15,04,18.20
2008,07,28,15,05,18.10
2008,07,28,15,06,18.10
2008,07,28,15,07,18.00
2008,07,28,15,08,17.90
2008,07,28,15,09,17.80
2008,07,28,15,10,17.80
2008,07,28,15,11,17.60
2008,07,28,15,12,17.30
2008,07,28,15,13,17.30
2008,07,28,15,14,17.30
2008,07,28,15,15,17.30
2008,07,28,15,16,17.40
2008,07,28,15,17,17.50
2008,07,28,15,18,17.60
2008,07,28,15,19,17.60
2008,07,28,15,20,17.60
2008,07,28,15,21,17.60
2008,07,28,15,22,17.70
2008,07,28,15,23,17.70
2008,07,28,15,24,17.70
2008,07,28,15,25,17.80
2008,07,28,15,26,17.80
2008,07,28,15,27,17.80
2008,07,28,15,28,17.90
2008,07,28,15,29,18.00
2008,07,28,15,30,18.10
2008,07,28,15,31,18.10
2008,07,28,15,32,18.10
2008,07,28,15,33,18.20
2008,07,28,15,34,18.30
2008,07,28,15,35,18.30
2008,07,28,15,36,18.30
2008,07,28,15,37,18.30
2008,07,28,15,38,18.20
2008,07,28,15,39,18.20
2008,07,28,15,40,18.20
2008,07,28,15,41,18.10
2008,07,28,15,42,18.10
2008,07,28,15,43,18.00
2008,07,28,15,44,18.10
2008,07,28,15,45,18.10
2008,07,28,15,46,18.10
2008,07,28,15,47,18.20
2008,07,28,15,48,18.20
2008,07,28,15,49,18.20
2008,07,28,15,50,18.20
2008,07,28,15,51,18.20
2008,07,28,15,52,18.20
2008,07,28,15,53,18.20
2008,07,28,15,54,18.20
2008,07,28,15,55,18.20
2008,07,28,15,56,18.20
2008,07,28,15,57,18.20
2008,07,28,15,58,18.20
2008,07,28,15,59,18.20
2008,07,28,16,00,18.20
2008,07,28,16,01,18.30
2008,07,28,16,02,18.20
2008,07,28,16,03,18.20
2008,07,28,16,04,18.20
2008,07,28,16,05,18.20
2008,07,28,16,06,18.30
2008,07,28,16,07,18.40
2008,07,28,16,08,18.40
2008,07,28,16,09,18.50
2008,07,28,16,10,18.60
2008,07,28,16,11,18.70
2008,07,28,16,12,18.80
2008,07,28,16,13,18.90
2008,07,28,16,14,18.90
2008,07,28,16,15,18.90
2008,07,28,16,16,18.90
2008,07,28,16,17,18.90
2008,07,28,16,18,18.80
2008,07,28,16,19,18.80
2008,07,28,16,20,18.80
2008,07,28,16,21,18.80
2008,07,28,16,22,18.90
2008,07,28,16,23,18.90
2008,07,28,16,24,19.00
2008,07,28,16,25,18.90
2008,07,28,16,26,18.90
2008,07,28,16,27,18.80
2008,07,28,16,28,18.70
2008,07,28,16,29,18.60
2008,07,28,16,30,18.40
2008,07,28,16,31,18.20
2008,07,28,16,32,18.20
2008,07,28,16,33,18.10
2008,07,28,16,34,18.00
2008,07,28,16,35,17.90
2008,07,28,16,36,17.70
2008,07,28,16,37,17.60
2008,07,28,16,38,17.40
2008,07,28,16,39,17.30
2008,07,28,16,40,17.10
2008,07,28,16,41,17.00
2008,07,28,16,42,17.00
2008,07,28,16,43,16.90
2008,07,28,16,44,16.90
2008,07,28,16,45,16.90
2008,07,28,16,46,16.90
2008,07,28,16,47,16.90
2008,07,28,16,48,16.90
2008,07,28,16,49,17.00
2008,07,28,16,50,17.10
2008,07,28,16,51,17.10
2008,07,28,16,52,17.10
2008,07,28,16,53,17.20
2008,07,28,16,54,17.20
2008,07,28,16,55,17.20
2008,07,28,16,56,17.20
2008,07,28,16,57,17.10
2008,07,28,16,58,17.10
2008,07,28,16,59,17.10
2008,07,28,17,00,17.20
2008,07,28,17,01,17.30
2008,07,28,17,02,17.20
2008,07,28,17,03,17.20
2008,07,28,17,04,17.20
2008,07,28,17,05,17.10
2008,07,28,17,06,17.10
2008,07,28,17,07,17.10
2008,07,28,17,08,17.10
2008,07,28,17,09,17.10
2008,07,28,17,10,17.10
2008,07,28,17,11,17.10
2008,07,28,17,12,17.10
2008,07,28,17,13,17.10
2008,07,28,17,14,17.10
2008,07,28,17,15,17.10
2008,07,28,17,16,17.10
2008,07,28,17,17,17.10
2008,07,28,17,18,17.10
2008,07,28,17,19,17.10
2008,07,28,17,20,17.10
2008,07,28,17,21,17.20
2008,07,28,17,22,17.10
2008,07,28,17,23,17.10
2008,07,28,17,24,17.10
2008,07,28,17,25,17.10
2008,07,28,17,26,17.10
2008,07,28,17,27,17.10
2008,07,28,17,28,17.10
2008,07,28,17,29,17.00
2008,07,28,17,30,17.00
2008,07,28,17,31,16.90
2008,07,28,17,32,16.80
2008,07,28,17,33,16.80
2008,07,28,17,34,16.80
2008,07,28,17,35,16.80
2008,07,28,17,36,16.80
2008,07,28,17,37,16.80
2008,07,28,17,38,16.80
2008,07,28,17,39,16.80
2008,07,28,17,40,16.80
2008,07,28,17,41,16.80
2008,07,28,17,42,16.80
2008,07,28,17,43,16.80
2008,07,28,17,44,16.80
2008,07,28,17,45,16.80
2008,07,28,17,46,16.80
2008,07,28,17,47,16.80
2008,07,28,17,48,16.80
2008,07,28,17,49,16.70
2008,07,28,17,50,16.70
2008,07,28,17,51,16.70
2008,07,28,17,52,16.70
2008,07,28,17,53,16.70
2008,07,28,17,54,16.60
2008,07,28,17,55,16.60
2008,07,28,17,56,16.60
2008,07,28,17,57,16.60
2008,07,28,17,58,16.60
2008,07,28,17,59,16.60
2008,07,28,18,00,16.50
2008,07,28,18,01,16.50
2008,07,28,18,02,16.40
2008,07,28,18,03,16.40
2008,07,28,18,04,16.40
2008,07,28,18,05,16.40
2008,07,28,18,06,16.40
2008,07,28,18,07,16.40
2008,07,28,18,08,16.40
2008,07,28,18,09,16.40
2008,07,28,18,10,16.40
2008,07,28,18,11,16.30
2008,07,28,18,12,16.30
2008,07,28,18,13,16.30
2008,07,28,18,14,16.30
2008,07,28,18,15,16.30
2008,07,28,18,16,16.40
2008,07,28,18,17,16.40
2008,07,28,18,18,16.40
2008,07,28,18,19,16.40
2008,07,28,18,20,16.40
2008,07,28,18,21,16.40
2008,07,28,18,22,16.40
2008,07,28,18,23,16.40
2008,07,28,18,24,16.40
2008,07,28,18,25,16.40
2008,07,28,18,26,16.40
2008,07,28,18,27,16.40
